GW0931 Weather Reports


time (UTC)temp
F
wind
direction
speed
knots
gust
knots
rain 1hr
in
rain 24hr
in
rain mn
in
humidity
%
barometer
mb
20260503071544 74 70 1.7 2.6 0.00 2.29 0.00 81 1013.9
20260503054621 75 102 1.7 2.6 0.00 2.29 0.00 79 1014.6
20260503053023 74 103 0.0 1.7 0.00 2.29 0.00 80 1014.8
20260503051520 74 97 0.0 1.7 0.00 2.29 0.00 81 1014.8
20260503050022 74 153 0.0 0.0 0.00 2.29 0.00 87 1014.8
20260503044523 75 153 0.0 2.6 0.00 2.29 0.00 89 1014.8
20260503043038 76 162 0.0 2.6 0.00 2.29 0.00 92 1015.0
20260503041538 76 152 0.0 0.9 0.00 2.29 0.00 93 1015.2
20260503040056 76 135 0.0 1.7 0.00 2.29 2.29 93 1015.2
20260503034508 76 86 0.0 0.9 0.00 2.29 2.29 93 1015.4
20260503033039 76 98 0.0 1.7 0.00 2.29 2.29 93 1015.3
20260503031550 76 79 1.7 4.3 0.00 2.29 2.29 93 1015.2
20260503030105 76 98 1.7 4.3 0.00 2.29 2.29 92 1015.1
20260503024525 76 121 0.0 4.3 0.00 2.29 2.29 90 1015.2
20260503023030 76 148 0.9 3.5 0.00 2.29 2.29 91 1015.0
20260503021541 76 165 0.9 2.6 0.00 2.29 2.29 91 1014.8
20260503020049 76 148 0.0 1.7 0.00 2.29 2.29 91 1014.7
20260503014544 76 252 0.9 2.6 0.00 2.29 2.29 91 1014.7
20260503013055 76 269 0.9 4.3 0.00 2.29 2.29 92 1014.5
20260503011515 76 275 1.7 4.3 0.00 2.29 2.29 94 1014.2
20260503010025 76 250 0.0 2.6 0.00 2.29 2.29 95 1014.1
20260503004543 76 262 0.0 0.9 0.00 2.29 2.29 95 1013.9
20260503003103 76 248 0.0 1.7 0.00 2.29 2.29 95 1013.7
20260503001626 76 223 0.0 2.6 0.00 2.29 2.29 95 1013.4
20260502234502 76 252 0.0 0.9 0.47 2.36 2.29 94 1013.1
20260502233014 76 321 0.0 1.7 1.14 2.36 2.29 94 1013.0
20260502231527 75 296 1.7 9.6 1.94 2.36 2.29 94 1012.7
20260502230046 75 305 4.3 7.8 2.18 2.31 2.24 95 1012.6
20260502224556 75 75 0.0 3.5 1.83 1.90 1.83 95 1012.9
20260502223015 76 61 2.6 5.2 1.12 1.19 1.12 94 1013.0
20260502221514 77 132 1.7 6.1 0.32 0.39 0.32 92 1012.9
20260502220037 78 69 2.6 5.2 0.06 0.13 0.06 89 1012.7
20260502214542 79 77 0.9 5.2 0.00 0.07 0.00 88 1012.6
20260502213103 80 40 2.6 7.8 0.00 0.07 0.00 88 1012.4
20260502211513 80 67 2.6 9.6 0.00 0.07 0.00 87 1012.3
20260502210013 81 62 3.5 9.6 0.00 0.07 0.00 86 1012.2
20260502204536 81 49 3.5 7.0 0.00 0.07 0.00 85 1012.1
20260502203050 82 50 2.6 10.4 0.00 0.07 0.00 85 1012.0
20260502201546 82 61 5.2 10.4 0.00 0.07 0.00 84 1012.2
20260502200112 83 65 2.6 8.7 0.00 0.07 0.00 82 1012.3
20260502194608 84 65 0.9 6.1 0.00 0.07 0.00 80 1012.3
20260502193022 87 72 0.0 3.5 0.00 0.07 0.00 76 1012.4
20260502191527 87 340 0.9 6.1 0.00 0.07 0.00 75 1012.4
20260502190040 87 311 0.0 4.3 0.00 0.07 0.00 72 1012.4
20260502184550 86 214 0.9 3.5 0.00 0.07 0.00 72 1012.5
20260502183118 86 308 0.9 6.1 0.00 0.07 0.00 72 1012.5
20260502181602 87 310 1.7 6.1 0.00 0.07 0.00 69 1012.8
20260502163020 85 270 3.5 6.1 0.00 0.07 0.00 64 1013.9
20260502161529 85 291 1.7 7.0 0.00 0.07 0.00 63 1014.0
20260502151540 88 250 0.0 1.7 0.00 0.07 0.00 67 1014.8
20260502123048 81 93 0.9 4.3 0.00 0.07 0.00 78 1014.5
20260502121506 80 70 2.6 4.3 0.00 0.07 0.00 78 1014.2
20260502114526 79 103 1.7 3.5 0.00 0.07 0.00 79 1013.9
20260502113046 79 101 0.9 2.6 0.00 0.07 0.00 78 1013.8
20260502111604 78 106 0.0 3.5 0.00 0.07 0.00 79 1013.6
20260502110004 78 75 0.9 2.6 0.00 0.07 0.00 81 1013.4
20260502104521 78 77 0.0 0.9 0.00 0.07 0.00 82 1013.2
20260502103057 76 63 0.0 1.7 0.00 0.07 0.00 84 1013.2
20260502101549 74 86 0.0 0.9 0.00 0.07 0.00 86 1012.9
20260502091511 74 99 0.0 0.9 0.00 0.07 0.00 90 1012.4